Flag Weather past 2 weeks in Perth, Western Australia, Australia

Now
59 °F

Sunny.


Feels Like: 56 °F
Forecast: 62 / 90 °F
Wind: 14 mph from East

Location: Belmont Perth Airport

Current Time: Nov 24, 2014 at 8:24:25 AM

Latest Report: Nov 24, 2014 at 7:30 AM


Visibility: 10 mi

Pressure: 30.18 "Hg

Humidity: 48%

Dew point: 39 °F

Location of PerthLocation

Historic Weather in Perth — Graph

°F

Perth temperature yesterday

Maximum temperature yesterday: 73 °F (at 2:00 PM)
Minimum temperature yesterday: 57 °F (at 6:00 AM)
Average temperature yesterday: 66 °F

Past Weeks' High & Low Weather Summary

 TemperatureHumidityPressure
High99 °F (Nov 9, 2:30 PM)94% (Nov 11, 3:00 AM)30.36 "Hg (Nov 11, 3:00 AM)
Low48 °F (Nov 14, 2:30 AM)11% (Nov 9, 4:00 PM)29.77 "Hg (Nov 9, 4:30 PM)
Average66 °F57%29.98 "Hg
* Reported Nov 9 7:00 AM — Nov 24 7:00 AM, Perth, Weather by CustomWeather, © 2014

Note: Actual official high and low records may vary slightly from our data, if they occured in-between our weather recording intervals... More about our weather records

Advertising

Perth weather history for previous 24 hours

 ConditionsComfort  
Time TempWeatherWind HumidityBarometerVisibility
7:00 AM
Nov 24
59 °FSunny.13 mph48%30.18 "Hg10 mi
6:30 AM57 °FSunny.12 mph51%30.18 "Hg10 mi
6:00 AM57 °FSunny.8 mph51%30.18 "Hg10 mi
5:00 AM55 °FSunny.14 mph55%30.15 "Hg10 mi
4:00 AM55 °FClear.13 mph55%30.15 "Hg10 mi
3:30 AM55 °FClear.9 mph55%30.15 "Hg10 mi
3:00 AM55 °FClear.9 mph55%30.12 "Hg10 mi
2:30 AM55 °FClear.9 mph59%30.12 "Hg10 mi
2:00 AM55 °FClear.10 mph59%30.12 "Hg10 mi
1:30 AM55 °FClear.10 mph63%30.12 "Hg10 mi
1:00 AM54 °FClear.10 mph72%30.12 "Hg10 mi
12:30 AM55 °FClear.12 mph67%30.12 "Hg10 mi
12:00 AM57 °FClear.14 mph59%30.12 "Hg10 mi
11:30 PM
Nov 23
57 °FClear.15 mph63%30.12 "Hg10 mi
11:00 PM59 °FClear.16 mph59%30.12 "Hg10 mi
10:30 PM61 °FClear.17 mph55%30.12 "Hg10 mi
10:00 PM61 °FClear.16 mph59%30.12 "Hg10 mi
9:30 PM63 °FClear.10 mph59%30.12 "Hg10 mi
9:00 PM63 °FClear.10 mph59%30.09 "Hg10 mi
8:30 PM63 °FClear.13 mph59%30.09 "Hg10 mi
8:00 PM63 °FClear.14 mph59%30.09 "Hg10 mi
7:30 PM64 °FClear.14 mph56%30.07 "Hg10 mi
7:00 PM64 °FClear.17 mph52%30.07 "Hg10 mi
6:30 PM66 °FClear.17 mph46%30.07 "Hg10 mi
6:00 PM68 °FClear.18 mph43%30.04 "Hg10 mi
5:30 PM68 °FSunny.20 mph46%30.04 "Hg10 mi
5:00 PM70 °FSunny.20 mph43%30.04 "Hg10 mi
4:30 PM70 °FSunny.20 mph43%30.01 "Hg10 mi
4:00 PM70 °FSunny.18 mph43%30.01 "Hg10 mi
3:30 PM72 °FSunny.20 mph41%30.01 "Hg10 mi
3:00 PM72 °FPassing clouds.18 mph41%30.01 "HgN/A
2:30 PM73 °FPassing clouds.16 mph38%30.01 "HgN/A
2:00 PM73 °FScattered clouds.16 mph41%30.01 "HgN/A
1:30 PM72 °FScattered clouds.17 mph44%30.01 "HgN/A
1:00 PM72 °FScattered clouds.17 mph41%30.01 "HgN/A
12:30 PM72 °FScattered clouds.14 mph41%30.04 "HgN/A
12:00 PM72 °FPartly sunny.14 mph44%30.04 "HgN/A
11:30 AM72 °FPartly sunny.15 mph44%30.04 "HgN/A
11:00 AM70 °FPartly sunny.18 mph46%30.04 "HgN/A
10:30 AM70 °FBroken clouds.15 mph46%30.04 "HgN/A
10:00 AM70 °FScattered clouds.18 mph46%30.04 "HgN/A
9:30 AM68 °FScattered clouds.14 mph53%30.04 "HgN/A
9:00 AM66 °FPartly sunny.18 mph60%30.04 "HgN/A
8:30 AM68 °FScattered clouds.10 mph53%30.04 "HgN/A
8:00 AM64 °FScattered clouds.15 mph64%30.04 "HgN/A
Weather by CustomWeather, © 2014

See weather overviewHow to use our weather pages